Flag for Germany Weather past 2 weeks in Stuhr, Lower Saxony, Germany

Now
36 °F

Partly cloudy.


Feels Like: 29 °F
Forecast: 35 / 46 °F
Wind: 8 mph from West

Location: Bremen Airport

Current Time: Apr 2, 2015 at 3:02:50 AM

Latest Report: Apr 2, 2015 at 2:20 AM


Visibility: N/A

Pressure: 29.74 "Hg

Humidity: 93%

Dew point: 34 °F

Location of StuhrLocation

Historic Weather in Stuhr — Graph

°F

Stuhr temperature yesterday

Maximum temperature yesterday: 46 °F (at 12:50 PM)
Minimum temperature yesterday: 34 °F (at 3:20 AM)
Average temperature yesterday: 39 °F

Past Weeks' High & Low Weather Summary

 TemperatureHumidityPressure
High61 °F (Mar 18, 3:50 PM)100% (Mar 19, 12:20 AM)30.42 "Hg (Mar 19, 12:20 AM)
Low28 °F (Mar 23, 5:20 AM)29% (Mar 19, 2:50 PM)29.00 "Hg (Mar 29, 8:20 PM)
Average43 °F80%29.87 "Hg
* Reported Mar 18 12:20 AM — Apr 2 1:50 AM, Stuhr, Weather by CustomWeather, © 2015

Note: Actual official high and low records may vary slightly from our data, if they occured in-between our weather recording intervals... More about our weather records

Advertising

Stuhr weather history for previous 24 hours

 ConditionsComfort  
Time TempWeatherWind HumidityBarometerVisibility
1:50 AM
Thu, Apr 2
34 °FSprinkles. Partly cloudy.12 mph100%29.77 "HgN/A
1:20 AM36 °FSprinkles. Passing clouds.13 mph93%29.80 "HgN/A
12:50 AM36 °FSprinkles. Passing clouds.14 mph93%29.80 "HgN/A
12:20 AM34 °FSprinkles. Passing clouds.12 mph100%29.83 "HgN/A
11:50 PM
Wed, Apr 1
37 °FSprinkles. Passing clouds.17 mph93%29.83 "HgN/A
11:20 PM37 °FSprinkles. Passing clouds.9 mph93%29.83 "HgN/A
10:50 PM34 °FSprinkles. Passing clouds.2 mph100%29.86 "HgN/A
10:20 PM36 °FSprinkles. Partly cloudy.10 mph93%29.86 "HgN/A
9:50 PM37 °FSprinkles. Partly cloudy.17 mph87%29.89 "HgN/A
9:20 PM37 °FSprinkles. Partly cloudy.18 mph87%29.89 "HgN/A
8:50 PM37 °FSprinkles. Broken clouds.13 mph87%29.92 "HgN/A
8:20 PM39 °FSprinkles. Broken clouds.17 mph81%29.89 "HgN/A
7:50 PM39 °FSprinkles. Partly sunny.24 mph87%29.89 "HgN/A
7:20 PM39 °FSprinkles. Broken clouds.16 mph87%29.89 "HgN/A
6:50 PM37 °FScattered showers. Scattered clouds.6 mph93%29.89 "HgN/A
6:20 PM37 °FSprinkles. Broken clouds.10 mph93%29.89 "HgN/A
5:50 PM39 °FSprinkles. Broken clouds.10 mph87%29.89 "HgN/A
5:20 PM39 °FSprinkles. Broken clouds.14 mph87%29.89 "Hg6 mi
4:50 PM43 °FSprinkles. Broken clouds.20 mph66%29.86 "HgN/A
4:20 PM45 °FScattered showers. Broken clouds.26 mph61%29.86 "HgN/A
3:50 PM45 °FSprinkles. Broken clouds.22 mph66%29.86 "HgN/A
3:20 PM45 °FSprinkles. Broken clouds.23 mph76%29.86 "HgN/A
2:50 PM43 °FSprinkles. Broken clouds.21 mph71%29.86 "HgN/A
2:20 PM41 °FSprinkles. Partly sunny.17 mph70%29.86 "HgN/A
1:50 PM43 °FSprinkles. Partly sunny.28 mph61%29.86 "HgN/A
1:20 PM43 °FSprinkles. Scattered clouds.16 mph76%29.83 "HgN/A
12:50 PM46 °FSprinkles. Scattered clouds.26 mph57%29.83 "HgN/A
12:20 PM45 °FScattered showers. Passing clouds.18 mph81%29.83 "HgN/A
11:50 AM41 °FSprinkles. Scattered clouds.23 mph81%29.83 "HgN/A
11:20 AM43 °FSprinkles. Scattered clouds.24 mph81%29.80 "HgN/A
10:50 AM45 °FSprinkles. Scattered clouds.22 mph71%29.80 "HgN/A
10:20 AM43 °FSprinkles. Scattered clouds.18 mph81%29.80 "HgN/A
9:50 AM41 °FSprinkles. Broken clouds.26 mph87%29.77 "HgN/A
9:20 AM41 °FSprinkles. Broken clouds.24 mph87%29.77 "HgN/A
8:50 AM39 °FScattered clouds.21 mph93%29.74 "HgN/A
8:20 AM37 °FPassing clouds.16 mph93%29.74 "HgN/A
7:50 AM37 °FScattered showers. Partly cloudy.15 mph93%29.74 "HgN/A
7:20 AM37 °FSprinkles. Passing clouds.18 mph93%29.71 "HgN/A
6:50 AM37 °FSprinkles. Partly cloudy.18 mph93%29.68 "HgN/A
6:20 AM36 °FSprinkles. Partly cloudy.15 mph93%29.68 "HgN/A
5:50 AM36 °FPassing clouds.18 mph93%29.68 "HgN/A
5:20 AM36 °FLight rain. Passing clouds.20 mph93%29.65 "HgN/A
4:50 AM36 °FClear.16 mph93%29.65 "Hg10 mi
4:20 AM36 °FPassing clouds.18 mph93%29.62 "HgN/A
3:50 AM36 °FPassing clouds.14 mph93%29.62 "HgN/A
3:20 AM34 °FSprinkles. Partly cloudy.20 mph100%29.65 "HgN/A
Weather by CustomWeather, © 2015

See weather overviewHow to use our weather pages